Weather History for Dubai International Airport, UAE

Change the Weather History Date:

Monday, July 15, 2013

  Actual Average Record
Temperature  
Mean Temperature 102 °F -  
Max Temperature 111 °F 103 °F - ()
Min Temperature 92 °F 86 °F - ()
Cooling Degree Days 36    
Growing Degree Days 52 (Base 50)    
Moisture  
Dew Point 71 °F    
Average Humidity 39    
Maximum Humidity 56    
Minimum Humidity 14    
Precipitation  
Precipitation 0.00 in 0.00 in - ()
Sea Level Pressure  
Sea Level Pressure 29.44 in    
Wind  
Wind Speed 11 mph ()    
Max Wind Speed 27 mph    
Max Gust Speed -    
Visibility 6.0 miles    
Events      
T = Trace of Precipitation, MM = Missing Value Source: Averaged Metar Reports

Daily Weather History Graph

Daily Weather History Graph

Search for Another Location

Airport:

Trip Planner

Search our weather history database for the weather conditions in past years. The results will help you decide how hot, cold, wet, or windy it might be!

Date:

Astronomy

Jul. 15, 2013 Rise Set
Actual Time 5:37 AM GST 7:11 PM GST
Civil Twilight 5:12 AM GST 7:36 PM GST
Nautical Twilight 4:41 AM GST 8:06 PM GST
Astronomical Twilight 4:10 AM GST 8:38 PM GST
Moon 11:44 AM GST (7/15) 11:33 PM GST (7/15)
Length of Visible Light 14h 24m
Length of Day
13h 33m
Waxing Crescent, 41% of the Moon is Illuminated
Jul 15
Waxing Crescent
Jul 16
First Quarter
Jul 22
Full
Jul 29
Last Quarter
Aug 7
New

Hourly Weather History & Observations

Time (GST) Temp. Heat Index Dew Point Humidity Pressure Visibility Wind Dir Wind Speed Gust Speed Precip Events Conditions
12:00 AM 96.8 °F 107.3 °F 73.4 °F 47% 29.42 in - ENE 9.2 mph - N/A   Clear
1:00 AM 96 °F - 74 °F 40% 29.44 in 6 mi East 20.1 mph - -  
1:00 AM 95.0 °F 104.5 °F 73.4 °F 49% 29.42 in - East 10.4 mph - N/A   Clear
2:00 AM 95.0 °F 107.4 °F 75.2 °F 53% 29.42 in - East 8.1 mph - N/A   Clear
3:00 AM 95.0 °F 104.5 °F 73.4 °F 49% 29.42 in - East 6.9 mph - N/A   Clear
4:00 AM 94 °F - 72 °F 40% 29.44 in 6 mi East 20.1 mph - -   Partly Cloudy
4:00 AM 95.0 °F 103.2 °F 71.6 °F 47% 29.42 in - East 10.4 mph - N/A   Clear
5:00 AM 93.2 °F 102.4 °F 73.4 °F 52% 29.44 in - ESE 16.1 mph - N/A   Clear
6:00 AM 93.2 °F 102.4 °F 73.4 °F 52% 29.47 in - SE 15.0 mph - N/A   Clear
7:00 AM 93 °F - 75 °F 47% 29.49 in 6 mi SE 26.8 mph - -   Partly Cloudy
7:00 AM 93.2 °F 105.0 °F 75.2 °F 56% 29.47 in - SE 13.8 mph - N/A   Clear
8:00 AM 95.0 °F 104.5 °F 73.4 °F 49% 29.47 in - ESE 13.8 mph - N/A   Clear
9:00 AM 98.6 °F 107.7 °F 71.6 °F 42% 29.50 in - SE 12.7 mph - N/A   Clear
10:00 AM 101 °F - 70 °F 27% 29.50 in 6 mi SE 20.1 mph - -   Partly Cloudy
10:00 AM 100.4 °F 107.8 °F 69.8 °F 37% 29.50 in - SE 10.4 mph - N/A   Clear
11:00 AM 105.8 °F 108.3 °F 62.6 °F 24% 29.47 in - Variable 5.8 mph - N/A   Clear
12:00 PM 105.8 °F 107.5 °F 60.8 °F 23% 29.47 in - SSW 5.8 mph - N/A   Clear
1:00 PM 109 °F - 61 °F 14% 29.46 in 6 mi NW 8.9 mph - -   Partly Cloudy
1:00 PM 109.4 °F 111.9 °F 60.8 °F 21% 29.44 in - Variable 4.6 mph - N/A   Clear
1:53 PM 104.0 °F 124.4 °F 78.8 °F 45% 29.44 in - NW 11.5 mph - N/A   Clear
2:00 PM 105.8 °F 127.2 °F 78.8 °F 43% 29.44 in - SE 3.5 mph - N/A   Clear
2:23 PM 104.0 °F 118.9 °F 75.2 °F 40% 29.42 in - NNW 13.8 mph - N/A   Clear
3:00 PM 104.0 °F 121.0 °F 77.0 °F 42% 29.42 in - North 15.0 mph - N/A   Clear
4:00 PM 103 °F - 77 °F 35% 29.42 in 6 mi North 12.7 mph - -   Partly Cloudy
4:00 PM 102.2 °F 119.3 °F 77.0 °F 45% 29.42 in - North 12.7 mph - N/A   Clear
5:00 PM 102.2 °F 111.7 °F 71.6 °F 37% 29.42 in - North 12.7 mph - N/A   Clear
6:00 PM 102.2 °F 110.0 °F 69.8 °F 35% 29.42 in - NNE 11.5 mph - N/A   Clear
7:00 PM 102 °F - 70 °F 26% 29.42 in 6 mi North 17.9 mph - -   Scattered Clouds
7:00 PM 102.2 °F 110.0 °F 69.8 °F 35% 29.42 in - North 9.2 mph - N/A   Clear
8:00 PM 100.4 °F 106.3 °F 68.0 °F 35% 29.42 in - NNE 10.4 mph - N/A   Clear
9:00 PM 100.4 °F 107.8 °F 69.8 °F 37% 29.44 in - NNE 10.4 mph - N/A   Clear
10:00 PM 100 °F - 69 °F 27% 29.46 in 6 mi NE 17.9 mph - -  
10:00 PM 100.4 °F 106.3 °F 68.0 °F 35% 29.44 in - NE 9.2 mph - N/A   Clear
11:00 PM 98.6 °F 104.1 °F 68.0 °F 37% 29.44 in - NNE 8.1 mph - N/A   Clear